Regional Weather Roundup
Issued by NWS

Home | Current Version | Previous Version | Text Only | Print | Product List | Glossary On
Versions: 1 2 3 4 5 6 7 8 9 10 11 12 13 14 15 16 17 18 19 20 21 22 23 24 25 26 27 28 29 30 31 32 33 34 35 36 37 38 39 40 41 42 43 44 45 46 47 48 49 50
000
ASUS43 KMKX 200000
RWRWI

WISCONSIN REGIONAL WEATHER ROUNDUP
NATIONAL WEATHER SERVICE MILWAUKEE/SULLIVAN WI
700 PM CDT THU OCT 19 2017

NOTE: "FAIR" INDICATES FEW OR NO CLOUDS BELOW 12,000 FEET WITH NO
SIGNIFICANT WEATHER AND/OR OBSTRUCTIONS TO VISIBILITY.

WIZ001-002-006>008-014>016-023>028-200100-
NORTHWEST WISCONSIN

CITY           SKY/WX    TMP DP  RH WIND       PRES   REMARKS
SUPERIOR ARPT  CLOUDY    62  35  36 SW7       29.90S
ASHLAND        CLOUDY    59  34  39 S6        29.94R
6HR MIN TEMP:  58; 6HR MAX TEMP:  71;

HAYWARD        CLEAR     60  33  36 S7        29.96F
6HR MIN TEMP:  58; 6HR MAX TEMP:  69;

SIREN          CLEAR     63  34  33 S6        29.94F HAZE
CUMBERLAND     CLEAR     55  36  47 S8        29.98S
RICE LAKE      CLEAR     60  35  38 SE8       30.00S
CHETEK         CLEAR     62  36  38 SE9       30.00S
LADYSMITH      CLEAR     61  35  37 S6        30.02S
EAU CLAIRE     NOT AVBL
MENOMONIE      CLEAR     62  35  36 E5        30.00S
NEW RICHMOND   CLEAR     61  34  36 S7        29.97S
OSCEOLA        CLEAR     63  35  35 SE5       29.99R
$$

WIZ003>005-009-010-017-018-200100-
NORTH CENTRAL WISCONSIN

CITY           SKY/WX    TMP DP  RH WIND       PRES   REMARKS
MANITOWISH WTR MOCLDY    56  32  40 S5        30.00S
ARBOR VITAE    PTCLDY    58  33  38 S5        30.01S
WOODRUFF       PTCLDY    58  33  38 S5        30.01S
RHINELANDER    CLEAR     58  33  39 S6        30.04S
6HR MIN TEMP:  58; 6HR MAX TEMP:  67;

EAGLE RIVER    PTCLDY    58  28  31 S3        30.02S
LAND O LAKES   PTCLDY    51  35  54 CALM      30.03S
PHILLIPS       CLEAR     58  33  39 S6        30.00F
TOMAHAWK       CLEAR     54  33  46 CALM      30.04S
MEDFORD        CLEAR     54  36  50 S7        30.04S
MERRILL        CLEAR     61  33  35 S3        30.05F
$$

WIZ029-030-035-036-043>047-200100-
CENTRAL WISCONSIN

CITY           SKY/WX    TMP DP  RH WIND       PRES   REMARKS
WAUSAU         CLEAR     59  34  39 SE5       30.04S
6HR MIN TEMP:  59; 6HR MAX TEMP:  68;

MOSINEE        NOT AVBL
MARSHFIELD     CLEAR     58  33  39 S9        30.05S
6HR MIN TEMP:  58; 6HR MAX TEMP:  70;

STEVENS POINT  CLEAR     55  34  44 S3        30.07S
WAUPACA        CLEAR     61  33  35 S3        30.08S
WAUTOMA        CLEAR     61  35  37 S7        30.09S
6HR MIN TEMP:  61; 6HR MAX TEMP:  72;

WISC RAPIDS    CLEAR     59  36  42 S7        30.08S
6HR MIN TEMP:  58; 6HR MAX TEMP:  70;

CAMP DOUGLAS   NOT AVBL
$$

WIZ011>013-019>022-031-037>040-048>050-200100-
NORTHEAST WISCONSIN

CITY           SKY/WX    TMP DP  RH WIND       PRES   REMARKS
ANTIGO         CLEAR     54  35  49 S7        30.07S
SHAWANO        CLEAR     61  34  36 CALM      30.07R
OCONTO         CLEAR     54  37  53 S3        30.07R
STURGEON BAY   CLEAR     58  37  45 S9        30.08S
6HR MIN TEMP:  58; 6HR MAX TEMP:  66;

GREEN BAY      CLEAR     59  39  47 S6        30.08S
6HR MIN TEMP:  59; 6HR MAX TEMP:  69;

MANITOWOC      CLEAR     54  42  64 S7        30.11S
6HR MIN TEMP:  53; 6HR MAX TEMP:  67;

APPLETON       PTCLDY    57  30  35 VRB5      30.07S
CLINTONVILLE   NOT AVBL
OSHKOSH        CLEAR     55  37  50 S7        30.09S
6HR MIN TEMP:  53; 6HR MAX TEMP:  68;

$$

WIZ032>034-041-042-053>061-200100-
SOUTHWEST WISCONSIN

CITY           SKY/WX    TMP DP  RH WIND       PRES   REMARKS
LA CROSSE      CLEAR     61  39  44 SE8       30.04F
6HR MIN TEMP:  61; 6HR MAX TEMP:  71;

SPARTA         CLEAR     57  39  50 S3        30.07S
VIROQUA        CLEAR     61  38  42 S7        30.08F
BOSCOBEL       CLEAR     60  39  45 CALM      30.09S
6HR MIN TEMP:  60; 6HR MAX TEMP:  74;

PRAIRIE DU CHI CLEAR     63  33  33 E5        30.07F
PLATTEVILLE    PTCLDY    59  38  45 SE8       30.11F
$$

WIZ056-057-062-063-064-067-068-200100-
SOUTH CENTRAL WISCONSIN

CITY           SKY/WX    TMP DP  RH WIND       PRES   REMARKS
REEDSBURG      CLEAR     62  35  37 CALM      30.09S
BARABOO/DELLS  CLEAR     60  33  36 SE3       30.10S
LONE ROCK      NOT AVBL
MINERAL POINT  CLEAR     63  32  31 S6        30.12R
MADISON        MOCLDY    61  37  41 S6        30.11S
6HR MIN TEMP:  61; 6HR MAX TEMP:  68;

MIDDLETON      CLEAR     58  38  46 CALM      30.11S
WATERTOWN      CLEAR     53  38  57 SE3       30.12S
MONROE         CLEAR     61  32  33 S9        30.12S
JANESVILLE     MOCLDY    63  34  34 VRB6      30.13S
$$

WIZ051-052-058>065-066-070>072-200100-
SOUTHEAST WISCONSIN

CITY           SKY/WX    TMP DP  RH WIND       PRES   REMARKS
MILWAUKEE      PTCLDY    58  26  29 S6        30.16R
6HR MIN TEMP:  58; 6HR MAX TEMP:  68;

WAUKESHA       CLEAR     55  34  44 SE6       30.15R
MILWAUKEE/TIMM CLEAR     59  27  29 S8        30.15R
RACINE         CLEAR     57  22  25 S7        30.17S
6HR MIN TEMP:  57; 6HR MAX TEMP:  65;

BURLINGTON     CLEAR     56  37  47 SE7       30.15S
KENOSHA        CLEAR     54  27  35 S8        30.16S
6HR MIN TEMP:  54; 6HR MAX TEMP:  69;

FOND DU LAC    CLEAR     57  33  40 S7        30.11R
6HR MIN TEMP:  57; 6HR MAX TEMP:  70;

SHEBOYGAN      CLEAR     51  38  60 S5        30.12R
6HR MIN TEMP:  51; 6HR MAX TEMP:  69;

WEST BEND      CLEAR     57  32  38 CALM      30.13R
JUNEAU         CLEAR     58  35  41 S6        30.13R
$$

LSZ147-162-200100-
LAKE SUPERIOR

STATION/POSITION TIME  TEMP    WIND        PRES    WAVE
                       AIR SEA DIR/SP/G            HT/PER
                 (UTC) (F)     (DEG/KT/KT) (MB)    (FT/S)
W MID LAKE BUOY  2250   56 52              1013.5F   2/ 4
DEVILS ISLAND    2300   61     130/  7/  7 1013.1F
SAXON HARBOR     2330   58     160/  2/  4 1013.2F
$$

LMZ867-665-643>646-200100-
LAKE MICHIGAN

STATION/POSITION TIME  TEMP    WIND        PRES    WAVE
                       AIR SEA DIR/SP/G            HT/PER
                 (UTC) (F)     (DEG/KT/KT) (MB)    (FT/S)
S GREEN BAY BUOY 2330   61 58  200/  8/ 10 1017.9F
N MID LAKE BUOY  2250   59 58  200/ 14/ 16 1018.3R   3/ 5
NORTHPORT PIER   2340   58     170/  3/  5 1017.6S
KEWAUNEE LAKESHO 2330   56     190/  8/  9 1018.2F
SHEBOYGAN LAKESH 2300   58     190/ 18/ 19 1019.5S
PORT WASHINGTON  2330   56     200/  7/ 12 1021.0S
ATWATER BUOY     2209   57 53  170/ 14/ 17 1020.4S
MILWAUKEE LAKESH 2330   59     190/  9/ 11   N/A
S MID LAKE BUOY  2250   60 61  210/ 12/ 14 1021.5R   1/ 4
KENOSHA   LAKESH 2300   58     190/  7/ 10 1021.0
$$

TC  - TEMPERATURE IN CELSIUS
VSB - VISIBILITY IN STATUTE MILES
WCI - WIND CHILL INDEX
HX  - HEAT INDEX




USA.gov is the U.S. government's official web portal to all federal, state and local government web resources and services.